{"data":{"norad_id":68813,"epoch":"2026-05-25T02:41:39.124896Z","epoch_age_seconds":62311,"freshness":"FRESH","line1":"1 68813U 26089M   26145.11225839  .00181392  00000+0  11885-2 0  9998","line2":"2 68813  97.2839 351.7648 0001504  83.3303 276.8133 15.75245184  5063","mean_motion":15.75245184,"eccentricity":0.0001504,"inclination_deg":97.2839,"raan_deg":351.7648,"arg_perigee_deg":83.3303,"mean_anomaly_deg":276.8133,"bstar":0.0011885,"rev_number":506,"period_min":91.414340740495,"perigee_km":342.92257294034,"apogee_km":344.9445717685,"semimajor_km":6722.0705723544,"source":"CELESTRAK","updated_at":"2026-05-25T13:38:22.042305Z"}}